Change the Weather History Date:

Thursday, September 19, 2013

  Actual Average Record
Temperature  
Mean Temperature 71 °F 67 °F  
Max Temperature 80 °F 77 °F 91 °F (2005)
Min Temperature 62 °F 57 °F 46 °F (2012)
Degree Days  
Heating Degree Days 0 2  
Month to date heating degree days 15 14  
Since 1 July heating degree days 17 16  
Cooling Degree Days 6 4  
Month to date cooling degree days 114 111  
Year to date cooling degree days 1009 1089  
Growing Degree Days 20 (Base 50)    
Moisture  
Dew Point 64 °F    
Average Humidity 80    
Maximum Humidity 93    
Minimum Humidity 67    
Precipitation  
Precipitation 0.05 in 0.12 in 0.87 in (1990)
Month to date precipitation 0.65 2.15  
Year to date precipitation 43.87 35.70  
Snow  
Snow 0.00 in 0.00 in - ()
Month to date snowfall 0.0 0.0  
Since 1 July snowfall 0.0 0.0  
Since 1 September snowfall 0.0 0.0  
Snow Depth 0.00 in    
Sea Level Pressure  
Sea Level Pressure 30.12 in    
Wind  
Wind Speed 0 mph (North)    
Max Wind Speed 7 mph    
Max Gust Speed 10 mph    
Visibility 7 miles    
Events Rain    
T = Trace of Precipitation, MM = Missing Value Source: NWS Daily Summary

Daily Weather History Graph

Daily Weather History Graph

Search for Another Location

Airport or City:

Trip Planner

Search our weather history database for the weather conditions in past years. The results will help you decide how hot, cold, wet, or windy it might be!

Date:

Astronomy

Sep. 19, 2013 Rise Set
Actual Time 7:18 AM EDT 7:34 PM EDT
Civil Twilight 6:52 AM EDT 8:00 PM EDT
Nautical Twilight 6:21 AM EDT 8:31 PM EDT
Astronomical Twilight 5:50 AM EDT 9:02 PM EDT
Moon 7:33 PM EDT (9/19) 7:25 AM EDT (9/19)
Length of Visible Light 13h 08m
Length of Day
12h 15m
Full, 100% of the Moon is Illuminated
Sep 19
Full
Sep 26
Last Quarter
Oct 4
New
Oct 11
First Quarter
Oct 18
Full

Hourly Weather History & Observations

Time (EDT) Temp. Dew Point Humidity Pressure Visibility Wind Dir Wind Speed Gust Speed Precip Events Conditions
12:53 AM 64.0 °F 61.0 °F 90% 30.14 in 9.0 mi Calm Calm - N/A   Overcast
1:16 AM 62.6 °F 60.8 °F 94% 30.15 in 7.0 mi Calm Calm - N/A   Overcast
1:53 AM 64.0 °F 61.0 °F 90% 30.12 in 9.0 mi Calm Calm - N/A   Overcast
2:53 AM 63.0 °F 61.0 °F 93% 30.12 in 6.0 mi Calm Calm - 0.00 in Rain Light Rain
3:10 AM 62.6 °F 60.8 °F 94% 30.14 in 2.5 mi Calm Calm - 0.05 in Rain Light Rain
3:18 AM 62.6 °F 60.8 °F 94% 30.14 in 7.0 mi Calm Calm - 0.05 in Rain Light Rain
3:53 AM 63.0 °F 61.0 °F 93% 30.11 in 7.0 mi Calm Calm - 0.05 in Rain Light Rain
4:16 AM 62.6 °F 60.8 °F 94% 30.14 in 1.5 mi Calm Calm - 0.00 in   Overcast
4:28 AM 62.6 °F 60.8 °F 94% 30.14 in 3.0 mi Calm Calm - 0.00 in   Overcast
4:53 AM 63.0 °F 61.0 °F 93% 30.11 in 8.0 mi Calm Calm - 0.00 in   Overcast
5:53 AM 63.0 °F 61.0 °F 93% 30.11 in 4.0 mi Calm Calm - N/A   Overcast
6:35 AM 62.6 °F 60.8 °F 94% 30.14 in 2.5 mi Calm Calm - N/A   Mostly Cloudy
6:39 AM 62.6 °F 60.8 °F 94% 30.14 in 1.5 mi Calm Calm - N/A   Mostly Cloudy
6:46 AM 62.6 °F 60.8 °F 94% 30.15 in 1.8 mi Calm Calm - N/A   Mostly Cloudy
6:50 AM 62.6 °F 60.8 °F 94% 30.15 in 2.0 mi Calm Calm - N/A   Mostly Cloudy
6:53 AM 63.0 °F 61.0 °F 93% 30.12 in 4.0 mi Calm Calm - N/A   Mostly Cloudy
7:53 AM 64.0 °F 61.0 °F 90% 30.13 in 5.0 mi Calm Calm - N/A   Overcast
8:53 AM 64.9 °F 62.1 °F 90% 30.14 in 6.0 mi Calm Calm - N/A   Overcast
9:33 AM 66.2 °F 62.6 °F 88% 30.17 in 7.0 mi Calm Calm - 0.00 in Rain Light Rain
9:53 AM 66.9 °F 63.0 °F 87% 30.15 in 9.0 mi Calm Calm - 0.00 in   Mostly Cloudy
10:00 AM 66.2 °F 62.6 °F 88% 30.18 in 9.0 mi Calm Calm - N/A   Mostly Cloudy
10:08 AM 66.2 °F 62.6 °F 88% 30.18 in 9.0 mi Calm Calm - N/A   Mostly Cloudy
10:53 AM 72.0 °F 64.9 °F 78% 30.15 in 10.0 mi Variable 3.5 mph - N/A   Mostly Cloudy
11:53 AM 70.0 °F 64.0 °F 81% 30.15 in 10.0 mi Variable 3.5 mph - N/A   Overcast
12:53 PM 75.0 °F 66.9 °F 76% 30.13 in 10.0 mi Calm Calm - N/A   Mostly Cloudy
1:48 PM 75.2 °F 66.2 °F 73% 30.15 in 10.0 mi Calm Calm - N/A   Mostly Cloudy
1:53 PM 73.9 °F 66.0 °F 76% 30.11 in 10.0 mi Calm Calm - N/A   Mostly Cloudy
2:53 PM 78.1 °F 66.9 °F 68% 30.09 in 10.0 mi Calm Calm - N/A   Overcast
3:24 PM 75.2 °F 66.2 °F 73% 30.12 in 10.0 mi Calm Calm - N/A   Mostly Cloudy
3:53 PM 75.9 °F 68.0 °F 76% 30.08 in 10.0 mi Calm Calm - N/A   Overcast
4:53 PM 77.0 °F 68.0 °F 74% 30.07 in 10.0 mi Calm Calm - N/A   Mostly Cloudy
5:53 PM 77.0 °F 68.0 °F 74% 30.07 in 10.0 mi Calm Calm - N/A   Scattered Clouds
6:53 PM 73.9 °F 68.0 °F 82% 30.06 in 10.0 mi Calm Calm - N/A   Mostly Cloudy
7:53 PM 73.0 °F 68.0 °F 84% 30.05 in 10.0 mi Calm Calm - N/A   Clear
8:53 PM 72.0 °F 66.9 °F 84% 30.05 in 9.0 mi Calm Calm - N/A   Clear
9:53 PM 70.0 °F 66.9 °F 90% 30.04 in 8.0 mi Calm Calm - N/A   Clear
10:53 PM 69.1 °F 66.9 °F 93% 30.04 in 6.0 mi Calm Calm - N/A   Clear
11:53 PM 69.1 °F 66.0 °F 90% 30.05 in 7.0 mi Calm Calm - N/A   Clear